Regional Weather Roundup
Issued by NWS

Home | Current Version | Previous Version | Text Only | Print | Product List | Glossary Off
Versions: 1 2 3 4 5 6 7 8 9 10 11 12 13 14 15 16 17 18 19 20 21 22 23 24 25 26 27 28 29 30 31 32 33 34 35 36 37 38 39 40 41 42 43 44 45 46 47 48 49 50

000
ASUS43 KLOT 011958
RWRIL

ILLINOIS REGIONAL WEATHER ROUNDUP
NATIONAL WEATHER SERVICE CHICAGO/ROMEOVILLE IL
300 PM CDT MON SEP 01 2014

NOTE: "FAIR" INDICATES FEW OR NO CLOUDS BELOW 12,000 FEET WITH NO
SIGNIFICANT WEATHER AND/OR OBSTRUCTIONS TO VISIBILITY.

* THESE STATIONS ARE NOT UNDER NWS QUALITY CONTROL. THEY ALSO MAY NOT
  REPORT WEATHER SUCH AS PRECIPITATION OR FOG.

ILZ001-002-007-009-015-016-024-012100-
NORTHWEST ILLINOIS

CITY           SKY/WX    TMP DP  RH WIND       PRES   REMARKS
MOLINE         PTSUNNY   81  66  60 SW14      29.79R HX  83
$$

ILZ003-004-008-010-011-017-018-012100-
NORTH CENTRAL ILLINOIS

CITY           SKY/WX    TMP DP  RH WIND       PRES   REMARKS
ROCKFORD       NOT AVBL
$$

ILZ005-006-012>014-019>023-012100-
NORTHEAST ILLINOIS

CITY           SKY/WX    TMP DP  RH WIND       PRES   REMARKS
CHICAGO-OHARE  PTSUNNY   82  63  52 SW15G24   29.76F HX  83
CHICAGO-MIDWAY PTSUNNY   84  66  54 SW16G23   29.76F HX  86
AURORA         MOSUNNY   82  65  56 W20G25    29.78F HX  84
WAUKEGAN       MOSUNNY   81  65  58 SW16G25   29.73F HX  83
DUPAGE AIRPORT PTSUNNY   82  66  58 SW14      29.77S HX  84
WHEELING       PTSUNNY   82  64  54 SW15G24   29.77S HX  83
NORTHERLY ISL    N/A     82  61  48 SW17        N/A  HX  83
$$

LMZ740>746-012100-
SOUTHERN LAKE MICHIGAN

STATION/POSITION SKY/WX   TEMP    WIND        PRES    VSBY  WAVE
                          AIR SEA DIR/SP/G                  HT/PER
                          (F)     (DEG/KT/KT) (MB)    (MI)  (FT/S)
SOUTHERN BUOY              72 70  220/ 14/ 16 1006.5F         3/ 5
WAUKEGAN HARBOR            79     230/ 13/ 17   N/A
HARRISON CRIB              79     230/ 16/ 23   N/A
BURNHAM HARBOR             82     210/ 10/ 14   N/A
CALUMET HARBOR             83     240/ 11/ 17 1006.8F
MICHIGAN CITY              78     210/ 16/ 21   N/A
MICHIGAN CITY 6N           76 72  250/ 10/ 12   N/A           2/ 3
ST. JOSEPH                 74 72  200/ 10/ 12   N/A           2/ 4
$$

ILZ025>027-034>036-040-047-049-050-058-095>099-012100-
WEST-CENTRAL ILLINOIS

CITY           SKY/WX    TMP DP  RH WIND       PRES   REMARKS
$$

ILZ028>032-037-038-041>044-048-051>054-059>061-012100-
CENTRAL ILLINOIS

CITY           SKY/WX    TMP DP  RH WIND       PRES   REMARKS
PEORIA         NOT AVBL
SPRINGFIELD    PTSUNNY   83  65  54 W14       29.87F HX  85
TAYLORVILLE    NOT AVBL
$$

ILZ033-039-045-046-055>057-062-063-012100-
EAST-CENTRAL ILLINOIS

CITY           SKY/WX    TMP DP  RH WIND       PRES   REMARKS
CHAMPAIGN      PTSUNNY   81  66  60 W18G24    29.88R HX  83
MATTOON        CLOUDY    82  65  56 W13G22    29.89S HX  84
$$

ILZ079-100>102-012100-
SOUTHWEST ILLINOIS

CITY           SKY/WX    TMP DP  RH WIND       PRES   REMARKS
CAHOKIA*       PTSUNNY   84  65  52 W5        29.89F HX  86
$$

ILZ064>066-069>071-074>076-080>082-084>086-088>090-092>094-012100-
SOUTH-CENTRAL ILLINOIS

CITY           SKY/WX    TMP DP  RH WIND       PRES   REMARKS
CARBONDALE     CLOUDY    82  69  64 SW13      29.92R HX  85
MARION         CLOUDY    84  70  61 SW16      29.93R HX  88
$$

ILZ067-068-072-073-078-083-087-091-012100-
SOUTHEAST ILLINOIS

CITY           SKY/WX    TMP DP  RH WIND       PRES   REMARKS
LAWRENCEVILLE  CLOUDY    83  73  72 SW15      29.91R HX  89
$$

ABBREVIATIONS USED IN REMARKS
   TC - TEMPERATURE IN CELSIUS
  WCI - WIND CHILL INDEX
   HX - HEAT INDEX
  VSB - VISIBILITY
$$



USA.gov is the U.S. government's official web portal to all federal, state and local government web resources and services.